Time,TemperatureF,DewpointF,PressureIn,WindDirection,WindDirectionDegrees,WindSpeedMPH,WindSpeedGustMPH,Humidity,HourlyPrecipIn,Conditions,Clouds,dailyrainin,SoftwareType,DateUTC
2013-10-21 00:13:00,46.5,45.0,30.09,South,176,0.0,0.0,94,0.00,,,0.00,weatherlink.com 1.10,2013-10-21 04:13:00,
2013-10-21 00:28:00,45.7,44.0,30.09,South,176,0.0,0.0,95,0.00,,,0.00,weatherlink.com 1.10,2013-10-21 04:28:00,
2013-10-21 00:43:00,45.4,44.0,30.09,South,176,0.0,0.0,95,0.00,,,0.00,weatherlink.com 1.10,2013-10-21 04:43:00,
2013-10-21 00:58:00,45.0,44.0,30.09,South,176,0.0,0.0,95,0.00,,,0.00,weatherlink.com 1.10,2013-10-21 04:58:00,
2013-10-21 01:13:00,44.4,43.0,30.09,South,176,0.0,0.0,95,0.00,,,0.00,weatherlink.com 1.10,2013-10-21 05:13:00,
2013-10-21 01:28:00,44.3,43.0,30.09,South,176,0.0,0.0,95,0.00,,,0.00,weatherlink.com 1.10,2013-10-21 05:28:00,
2013-10-21 01:43:00,44.5,43.0,30.09,South,176,0.0,0.0,95,0.00,,,0.00,weatherlink.com 1.10,2013-10-21 05:43:00,
2013-10-21 01:58:00,44.2,43.0,30.09,South,176,0.0,0.0,95,0.00,,,0.00,weatherlink.com 1.10,2013-10-21 05:58:00,
2013-10-21 02:13:00,43.7,42.0,30.09,South,176,0.0,0.0,95,0.00,,,0.00,weatherlink.com 1.10,2013-10-21 06:13:00,
2013-10-21 02:28:00,44.0,43.0,30.09,South,176,0.0,0.0,95,0.00,,,0.00,weatherlink.com 1.10,2013-10-21 06:28:00,
2013-10-21 02:43:00,43.6,42.0,30.09,South,176,0.0,0.0,95,0.00,,,0.00,weatherlink.com 1.10,2013-10-21 06:43:00,
2013-10-21 02:58:00,43.5,43.0,30.09,South,176,0.0,1.0,96,0.00,,,0.00,weatherlink.com 1.10,2013-10-21 06:58:00,
2013-10-21 03:14:00,43.1,42.0,30.09,South,176,0.0,0.0,95,0.00,,,0.00,weatherlink.com 1.10,2013-10-21 07:14:00,
2013-10-21 03:29:00,42.7,41.0,30.09,South,176,0.0,0.0,95,0.00,,,0.00,weatherlink.com 1.10,2013-10-21 07:29:00,
2013-10-21 03:44:00,42.6,41.0,30.09,South,176,0.0,0.0,95,0.00,,,0.00,weatherlink.com 1.10,2013-10-21 07:44:00,
2013-10-21 03:59:00,42.5,41.0,30.09,South,176,0.0,0.0,95,0.00,,,0.00,weatherlink.com 1.10,2013-10-21 07:59:00,
2013-10-21 04:14:00,42.1,41.0,30.09,South,176,0.0,0.0,95,0.00,,,0.00,weatherlink.com 1.10,2013-10-21 08:14:00,
2013-10-21 04:29:00,42.1,41.0,30.10,South,176,0.0,0.0,95,0.00,,,0.00,weatherlink.com 1.10,2013-10-21 08:29:00,
2013-10-21 04:44:00,42.1,41.0,30.10,NE,38,1.0,2.0,95,0.00,,,0.00,weatherlink.com 1.10,2013-10-21 08:44:00,
2013-10-21 04:59:00,42.0,41.0,30.10,NE,38,0.0,1.0,95,0.00,,,0.00,weatherlink.com 1.10,2013-10-21 08:59:00,
2013-10-21 05:14:00,41.8,41.0,30.11,NE,38,0.0,1.0,95,0.00,,,0.00,weatherlink.com 1.10,2013-10-21 09:14:00,
2013-10-21 05:29:00,41.8,41.0,30.11,NE,38,0.0,1.0,95,0.00,,,0.00,weatherlink.com 1.10,2013-10-21 09:29:00,
2013-10-21 05:44:00,42.0,41.0,30.11,NE,38,0.0,1.0,95,0.00,,,0.00,weatherlink.com 1.10,2013-10-21 09:44:00,
2013-10-21 05:59:00,42.0,41.0,30.11,NE,38,0.0,1.0,95,0.00,,,0.00,weatherlink.com 1.10,2013-10-21 09:59:00,
2013-10-21 06:14:00,42.1,41.0,30.12,NE,38,0.0,1.0,95,0.00,,,0.00,weatherlink.com 1.10,2013-10-21 10:14:00,
2013-10-21 06:29:00,41.6,40.0,30.12,NE,38,0.0,0.0,95,0.00,,,0.00,weatherlink.com 1.10,2013-10-21 10:29:00,
2013-10-21 06:44:00,41.3,40.0,30.12,NE,38,0.0,0.0,95,0.00,,,0.00,weatherlink.com 1.10,2013-10-21 10:44:00,
2013-10-21 06:59:00,41.3,40.0,30.12,NE,38,0.0,0.0,95,0.00,,,0.00,weatherlink.com 1.10,2013-10-21 10:59:00,
2013-10-21 07:14:00,41.3,40.0,30.12,NE,38,0.0,0.0,95,0.00,,,0.00,weatherlink.com 1.10,2013-10-21 11:14:00,
2013-10-21 07:29:00,41.1,40.0,30.13,NE,38,0.0,1.0,95,0.00,,,0.00,weatherlink.com 1.10,2013-10-21 11:29:00,
2013-10-21 07:44:00,40.9,40.0,30.13,NE,38,0.0,0.0,95,0.00,,,0.00,weatherlink.com 1.10,2013-10-21 11:44:00,
2013-10-21 07:59:00,41.1,40.0,30.14,NE,38,0.0,0.0,95,0.00,,,0.00,weatherlink.com 1.10,2013-10-21 11:59:00,
2013-10-21 08:14:00,41.6,40.0,30.14,NE,38,0.0,0.0,95,0.00,,,0.00,weatherlink.com 1.10,2013-10-21 12:14:00,
2013-10-21 08:29:00,42.6,41.0,30.14,NE,38,0.0,0.0,94,0.00,,,0.00,weatherlink.com 1.10,2013-10-21 12:29:00,
2013-10-21 08:44:00,43.7,42.0,30.14,NE,38,0.0,0.0,95,0.00,,,0.00,weatherlink.com 1.10,2013-10-21 12:44:00,
2013-10-21 08:59:00,44.7,43.0,30.15,NE,38,0.0,2.0,95,0.00,,,0.00,weatherlink.com 1.10,2013-10-21 12:59:00,
2013-10-21 09:14:00,46.5,45.0,30.15,NE,38,0.0,1.0,95,0.00,,,0.00,weatherlink.com 1.10,2013-10-21 13:14:00,
2013-10-21 09:29:00,48.7,47.0,30.15,NE,38,1.0,2.0,93,0.00,,,0.00,weatherlink.com 1.10,2013-10-21 13:29:00,
2013-10-21 09:44:00,50.3,48.0,30.15,NE,38,0.0,2.0,93,0.00,,,0.00,weatherlink.com 1.10,2013-10-21 13:44:00,
2013-10-21 09:59:00,52.2,50.0,30.15,NE,38,0.0,0.0,92,0.00,,,0.00,weatherlink.com 1.10,2013-10-21 13:59:00,
2013-10-21 10:14:00,53.0,49.0,30.15,ESE,107,1.0,4.0,86,0.00,,,0.00,weatherlink.com 1.10,2013-10-21 14:14:00,
2013-10-21 10:29:00,53.9,50.0,30.15,NE,42,1.0,3.0,85,0.00,,,0.00,weatherlink.com 1.10,2013-10-21 14:29:00,
2013-10-21 10:44:00,55.0,49.0,30.14,NNW,332,1.0,2.0,81,0.00,,,0.00,weatherlink.com 1.10,2013-10-21 14:44:00,
2013-10-21 10:59:00,55.7,50.0,30.15,ENE,75,1.0,3.0,81,0.00,,,0.00,weatherlink.com 1.10,2013-10-21 14:59:00,
2013-10-21 11:15:00,57.7,51.0,30.15,West,276,0.0,3.0,78,0.00,,,0.00,weatherlink.com 1.10,2013-10-21 15:15:00,
2013-10-21 11:30:00,58.3,51.0,30.15,West,261,2.0,5.0,78,0.00,,,0.00,weatherlink.com 1.10,2013-10-21 15:30:00,
2013-10-21 11:45:00,59.4,53.0,30.14,East,81,1.0,4.0,79,0.00,,,0.00,weatherlink.com 1.10,2013-10-21 15:45:00,
2013-10-21 12:00:00,60.9,53.0,30.14,SSW,192,2.0,6.0,75,0.00,,,0.00,weatherlink.com 1.10,2013-10-21 16:00:00,
2013-10-21 12:15:00,61.2,53.0,30.13,WNW,290,2.0,4.0,74,0.00,,,0.00,weatherlink.com 1.10,2013-10-21 16:15:00,
2013-10-21 12:30:00,61.5,53.0,30.12,WNW,297,2.0,4.0,73,0.00,,,0.00,weatherlink.com 1.10,2013-10-21 16:30:00,
2013-10-21 12:46:00,62.6,54.0,30.12,NW,306,1.0,4.0,73,0.00,,,0.00,weatherlink.com 1.10,2013-10-21 16:46:00,
2013-10-21 13:00:00,62.7,53.0,30.11,West,273,2.0,7.0,70,0.00,,,0.00,weatherlink.com 1.10,2013-10-21 17:00:00,
2013-10-21 13:15:00,62.9,52.0,30.10,West,275,3.0,5.0,68,0.00,,,0.00,weatherlink.com 1.10,2013-10-21 17:15:00,
2013-10-21 13:30:00,63.5,54.0,30.10,SW,221,2.0,5.0,71,0.00,,,0.00,weatherlink.com 1.10,2013-10-21 17:30:00,
2013-10-21 13:45:00,64.0,54.0,30.08,WSW,240,0.0,4.0,70,0.00,,,0.00,weatherlink.com 1.10,2013-10-21 17:45:00,
2013-10-21 14:00:00,65.3,55.0,30.08,East,98,0.0,4.0,69,0.00,,,0.00,weatherlink.com 1.10,2013-10-21 18:00:00,
2013-10-21 14:15:00,65.8,55.0,30.07,WNW,284,3.0,6.0,68,0.00,,,0.00,weatherlink.com 1.10,2013-10-21 18:15:00,
2013-10-21 14:30:00,65.8,55.0,30.06,NW,313,3.0,5.0,69,0.00,,,0.00,weatherlink.com 1.10,2013-10-21 18:30:00,
2013-10-21 14:45:00,66.1,53.0,30.05,West,271,2.0,5.0,64,0.00,,,0.00,weatherlink.com 1.10,2013-10-21 18:45:00,
2013-10-21 15:00:00,66.2,54.0,30.05,SSW,193,1.0,4.0,66,0.00,,,0.00,weatherlink.com 1.10,2013-10-21 19:00:00,
2013-10-21 15:15:00,65.4,53.0,30.05,WSW,246,3.0,4.0,65,0.00,,,0.00,weatherlink.com 1.10,2013-10-21 19:15:00,
2013-10-21 15:30:00,65.3,55.0,30.05,SW,230,1.0,4.0,69,0.00,,,0.00,weatherlink.com 1.10,2013-10-21 19:30:00,
2013-10-21 15:45:00,66.4,55.0,30.04,WSW,256,1.0,5.0,68,0.00,,,0.00,weatherlink.com 1.10,2013-10-21 19:45:00,
2013-10-21 16:00:00,66.7,55.0,30.04,SE,130,1.0,4.0,67,0.00,,,0.00,weatherlink.com 1.10,2013-10-21 20:00:00,
2013-10-21 16:15:00,66.0,55.0,30.03,SW,234,0.0,4.0,68,0.00,,,0.00,weatherlink.com 1.10,2013-10-21 20:15:00,
2013-10-21 16:30:00,66.3,56.0,30.02,West,268,2.0,3.0,69,0.00,,,0.00,weatherlink.com 1.10,2013-10-21 20:30:00,
2013-10-21 16:45:00,66.3,55.0,30.02,WNW,284,0.0,4.0,68,0.00,,,0.00,weatherlink.com 1.10,2013-10-21 20:45:00,
2013-10-21 17:00:00,65.5,57.0,30.02,SSE,148,0.0,1.0,75,0.00,,,0.00,weatherlink.com 1.10,2013-10-21 21:00:00,
2013-10-21 17:15:00,65.1,57.0,30.02,SSW,198,1.0,2.0,74,0.00,,,0.00,weatherlink.com 1.10,2013-10-21 21:15:00,
2013-10-21 17:30:00,63.9,57.0,30.02,WSW,248,0.0,2.0,77,0.00,,,0.00,weatherlink.com 1.10,2013-10-21 21:30:00,
2013-10-21 17:45:00,63.4,56.0,30.02,WSW,248,0.0,1.0,77,0.00,,,0.00,weatherlink.com 1.10,2013-10-21 21:45:00,
2013-10-21 18:00:00,62.1,56.0,30.02,WSW,248,1.0,1.0,80,0.00,,,0.00,weatherlink.com 1.10,2013-10-21 22:00:00,
2013-10-21 18:15:00,60.8,56.0,30.02,WSW,248,0.0,1.0,85,0.00,,,0.00,weatherlink.com 1.10,2013-10-21 22:15:00,
2013-10-21 18:30:00,59.9,55.0,30.03,WSW,248,0.0,0.0,85,0.00,,,0.00,weatherlink.com 1.10,2013-10-21 22:30:00,
2013-10-21 18:45:00,58.8,55.0,30.03,WSW,248,0.0,1.0,86,0.00,,,0.00,weatherlink.com 1.10,2013-10-21 22:45:00,
2013-10-21 19:00:00,58.2,55.0,30.03,WSW,248,1.0,1.0,88,0.00,,,0.00,weatherlink.com 1.10,2013-10-21 23:00:00,
2013-10-21 19:15:00,57.6,55.0,30.02,WSW,248,0.0,1.0,91,0.00,,,0.00,weatherlink.com 1.10,2013-10-21 23:15:00,
2013-10-21 19:30:00,57.6,54.0,30.02,WSW,248,0.0,0.0,89,0.00,,,0.00,weatherlink.com 1.10,2013-10-21 23:30:00,
2013-10-21 19:45:00,57.3,55.0,30.02,WSW,248,0.0,1.0,90,0.00,,,0.00,weatherlink.com 1.10,2013-10-21 23:45:00,
2013-10-21 20:00:00,57.3,54.0,30.02,WSW,248,1.0,1.0,89,0.00,,,0.00,weatherlink.com 1.10,2013-10-22 00:00:00,
2013-10-21 20:15:00,56.9,54.0,30.02,WSW,248,0.0,0.0,91,0.00,,,0.00,weatherlink.com 1.10,2013-10-22 00:15:00,
2013-10-21 20:30:00,56.8,55.0,30.02,WSW,248,0.0,1.0,92,0.00,,,0.00,weatherlink.com 1.10,2013-10-22 00:30:00,
2013-10-21 20:45:00,56.4,54.0,30.02,WSW,248,0.0,1.0,92,0.00,,,0.00,weatherlink.com 1.10,2013-10-22 00:45:00,
2013-10-21 21:01:00,56.1,54.0,30.02,WSW,248,0.0,0.0,93,0.00,,,0.00,weatherlink.com 1.10,2013-10-22 01:01:00,
2013-10-21 21:16:00,56.0,54.0,30.02,WSW,248,0.0,1.0,93,0.00,,,0.00,weatherlink.com 1.10,2013-10-22 01:16:00,
2013-10-21 21:31:00,56.1,54.0,30.02,WSW,248,0.0,0.0,93,0.00,,,0.00,weatherlink.com 1.10,2013-10-22 01:31:00,
2013-10-21 21:46:00,56.4,55.0,30.02,WSW,248,0.0,0.0,93,0.00,,,0.00,weatherlink.com 1.10,2013-10-22 01:46:00,
2013-10-21 22:01:00,56.4,54.0,30.01,WSW,248,0.0,0.0,92,0.00,,,0.00,weatherlink.com 1.10,2013-10-22 02:01:00,
2013-10-21 22:16:00,56.5,54.0,30.01,WSW,248,0.0,0.0,92,0.00,,,0.00,weatherlink.com 1.10,2013-10-22 02:16:00,
2013-10-21 22:31:00,56.4,54.0,30.00,WSW,248,0.0,0.0,92,0.00,,,0.00,weatherlink.com 1.10,2013-10-22 02:31:00,
2013-10-21 22:46:00,56.3,54.0,29.99,WSW,248,0.0,1.0,93,0.00,,,0.00,weatherlink.com 1.10,2013-10-22 02:46:00,
2013-10-21 23:01:00,56.3,54.0,30.00,WSW,248,0.0,0.0,93,0.00,,,0.00,weatherlink.com 1.10,2013-10-22 03:01:00,
2013-10-21 23:16:00,56.0,54.0,30.00,WSW,248,0.0,0.0,93,0.00,,,0.00,weatherlink.com 1.10,2013-10-22 03:16:00,
2013-10-21 23:31:00,55.9,54.0,29.99,WSW,248,1.0,1.0,94,0.00,,,0.00,weatherlink.com 1.10,2013-10-22 03:31:00,
2013-10-21 23:46:00,55.7,54.0,30.00,WSW,248,0.0,0.0,94,0.00,,,0.00,weatherlink.com 1.10,2013-10-22 03:46:00,